Location: Stara Lesna
(49.1528°N, 20.2911°E)
Time: 02:54:24
(UTC+02:00)

IRS-P3 - Pass Details

Date: 21 September 2019
Orbit: 813 x 820 km, 98.8° (Epoch: 14 October)

Event Time Altitude Azimuth Distance (km) Brightness Sun altitude
Rises 03:24:59 0° 12° (NNE) 3,355 8.1 -27.7°
Reaches altitude 10° 03:27:22 10° 9° (N) 2,418 7.1 -27.4°
Enters shadow 03:32:14 60° 313° (NW) 929 4.2 -26.8°
